Weather Roundup
Issued by NWS

Home | Current Version | Previous Version | Text Only | Print | Product List | Glossary On
Versions: 1 2 3 4 5 6 7 8 9 10 11 12 13 14 15 16 17 18 19 20 21 22 23 24 25 26 27 28 29 30 31 32 33 34 35 36 37 38 39 40 41 42 43 44 45 46 47 48 49 50
000
NZUS93 KARX 260310
HRRWXR

CURRENT HOURLY OBSERVATIONS ACROSS
MUCH OF THE UPPER MISSISSIPPI VALLEY
NATIONAL WEATHER SERVICE LA CROSSE WI
1000 PM CDT FRI JUL 25 2014


...SOUTHEAST MINNESOTA...


CITY           SKY/WX    TMP DP  RH WIND       PRES   REMARKS
ROCHESTER      CLOUDY    72  66  81 S10       29.84R
ROCHESTER/MAYO CLOUDY    73  65  78 S9        29.83R
WINONA         CLOUDY    73  66  78 S3        29.83R
AUSTIN         CLOUDY    73  68  83 S7        29.82R
ALBERT LEA     CLOUDY    75  68  78 S3        29.81R
DODGE CENTER   CLOUDY    73  70  88 SW3       29.83R
PRESTON        CLOUDY    69  69  99 SE9       29.85R
OWATONNA       MOCLDY    75  66  73 S6        29.80S
FARIBAULT      MOCLDY    79  66  65 S5        29.80R
$$

...ELSEWHERE IN MINNESOTA...


CITY           SKY/WX    TMP DP  RH WIND       PRES   REMARKS
MINNEAPOLIS    CLOUDY    78  69  73 S3        29.78R
INTNL FALLS    PTCLDY    68  65  90 CALM      29.72F
DULUTH         CLOUDY    68  64  87 S8        29.78R
RED WING       DRIZZLE   73  70  88 SE5       29.78R
REDWOOD FALLS  CLOUDY    78  72  81 NW6       29.78R
MANKATO        MOCLDY    73  66  78 S5        29.80R
WORTHINGTON    PTCLDY    73  72  94 SW6       29.84R
FAIRMONT       PTCLDY    72  61  68 S3        29.81R
$$

...SOUTHWEST WISCONSIN...


CITY           SKY/WX    TMP DP  RH WIND       PRES   REMARKS
LA CROSSE      CLOUDY    72  64  76 SE13      29.83R
PRAIRIE DU CHI CLOUDY    70  63  78 E8        29.84S
BOSCOBEL       CLOUDY    70  62  76 MISG      29.86S
LONE ROCK      CLOUDY    71  63  75 E6        29.87F
PLATTEVILLE    MOCLDY    66  63  89 SE9       29.90R
FORT MC COY    MOCLDY    67  61  80 SE3       29.86S
CAMP DOUGLAS   CLEAR     67  65  95 SE9       29.86S
VIROQUA        CLOUDY    66  64  90 SE8       29.88R
WIS DELLS      CLEAR     65  59  81 S7        29.88S
$$

...ELSEWHERE IN WISCONSIN...


CITY           SKY/WX    TMP DP  RH WIND       PRES   REMARKS
MILWAUKEE      PTCLDY    68  59  73 SW8       29.92R
MADISON        CLOUDY    69  61  75 S8        29.90S
GREEN BAY      MOCLDY    66  61  84 S5        29.87F
EAU CLAIRE     CLOUDY    72  65  78 S12G21    29.80S
BLACK RVR FLS  MOCLDY    65  65 100 CALM      29.84S
MEDFORD        CLOUDY    65  62  91 S8        29.85S
WAUSAU         MOCLDY    66  62  87 S7        29.84F
WIS RAPIDS     CLEAR     67  62  84 S6        29.87F
MARSHFIELD     CLEAR     65  62  90 S7        29.85F
RICE LAKE      CLOUDY    69  66  88 SE3       29.83R
$$

...NORTHEAST IOWA...


CITY           SKY/WX    TMP DP  RH WIND       PRES   REMARKS
WATERLOO       CLOUDY    73  67  81 SE10      29.81R
DUBUQUE        CLOUDY    65  62  90 SE14G22   29.88S
DECORAH        CLOUDY    68  66  94 SE8       29.84R
MASON CITY     CLOUDY    73  70  90 S6        29.83R
CHARLES CITY   CLOUDY    73  70  88 SE7       29.83R
OELWEIN        CLOUDY    70  66  88 SE10      29.85R
$$

...ELSEWHERE IN IOWA...


CITY           SKY/WX    TMP DP  RH WIND       PRES   REMARKS
DES MOINES     PTCLDY    78  72  81 E8        29.78R
IOWA CITY      CLOUDY    71  66  84 SE9       29.85R
FORT DODGE     CLOUDY    73  70  88 E3        29.82R
MARSHALLTOWN   CLOUDY    73  70  90 E6        29.80R
CEDAR RAPIDS   CLOUDY    71  65  81 SE8       29.83R
$$

...NORTHERN ILLINOIS...


CITY           SKY/WX    TMP DP  RH WIND       PRES   REMARKS
CHICAGO-OHARE  CLOUDY    71  57  61 SW7       29.93S
DUPAGE         CLOUDY    69  60  73 S10       29.93S
CHICAGO-MIDWAY CLOUDY    73  60  63 SW10      29.94R
MOLINE         CLOUDY    69  64  84 SE9       29.87S
ROCKFORD       CLOUDY    67  59  75 S8        29.94S
STERLING       CLOUDY    66  61  82 SE8       29.91S
PEORIA         CLOUDY    70  61  73 SE10      29.92R
$$

NOTE: "FAIR" INDICATES FEW OR NO CLOUDS BELOW 12,000 FEET WITH NO
SIGNIFICANT WEATHER AND/OR OBSTRUCTIONS TO VISIBILITY. WIND
SPEEDS ARE IN MILES-PER-HOUR.



USA.gov is the U.S. government's official web portal to all federal, state and local government web resources and services.